Tracking 31027 objects as of 19-Jul-2025
HD Live streaming from Space Station
objects crossing your sky now

STARLINK-1905

Track STARLINK-1905 now!
10-day predictions
STARLINK-1905 is classified as:


NORAD ID: 46746
Int'l Code: 2020-074H
Perigee: 553.7 km
Apogee: 555.1 km
Inclination: 53.1 °
Period: 95.6 minutes
Semi major axis: 6925 km
RCS: Unknown
Launch date: October 24, 2020
Source: United States (US)
Launch site: AIR FORCE EASTERN TEST RANGE (AFETR)
Your satellite tracking list
SL-12 R/B(AUX MOTOR)
Track 1 satellite(s)




NASA's NSSDC Master Catalog

Two Line Element Set (TLE):
1 46746U 20074H   25199.55612378 -.00000317  00000-0 -24303-5 0  9993
2 46746  53.0559 292.6859 0001056  90.2415 269.8695 15.06385434261384
Source of the keplerian elements: AFSPC